Theta_e
292 293 294 294 295 296 296 297 297 298 299 299 301 304 307 311 320 322 322 321 319 319 319 318 317 318 317 317 317 317 315 314 310 313 316 316 314 312 304 306 305 307 307
289 290 291 291 292 292 292 293 295 294 295 296 297 299 300 303 306 310 316 319 320 319 319 318 317 318 317 318 318 316 316 316 313 311 314 315 311 310 311 304 302 303 304
285 286 287 288 289 289 289 290 290 291 292 293 294 294 296 298 300 303 306 310 314 318 319 319 319 319 317 318 317 317 317 316 316 313 313 316 311 301 296 296 297 297 297
283 284 284 286 287 285 285 285 286 287 288 289 291 292 294 294 295 298 301 305 305 307 312 316 319 319 318 318 317 317 317 316 315 314 313 313 300 293 297 299 291 291 294
281 282 282 284 282 282 282 282 283 284 285 286 287 288 290 291 292 294 295 296 297 298 301 305 308 308 301 308 317 317 317 315 314 312 311 311 293 288 297 299 301 297 293
279 279 278 278 278 278 279 280 280 281 282 283 283 285 286 287 290 291 292 293 293 293 295 298 301 297 301 298 299 303 312 317 313 312 311 308 303 304 305 303 300 291 288
276 276 275 276 276 276 276 277 277 278 279 280 282 283 283 284 286 288 288 289 290 291 292 293 295 297 295 303 304 300 300 302 307 316 313 312 310 308 306 301 300 297 300
274 274 274 274 274 274 274 274 275 276 276 277 278 279 280 281 284 286 287 288 288 289 290 292 292 293 295 296 300 303 307 310 309 309 313 317 317 316 308 305 303 298 287
272 272 272 273 273 273 273 273 274 274 275 276 277 278 278 280 283 284 284 284 284 285 288 290 291 291 292 293 295 295 298 302 306 302 305 308 308 308 309 304 295 290 290
271 272 272 272 272 271 272 273 274 274 274 276 276 277 278 279 281 283 284 284 283 285 287 288 288 288 290 292 293 293 293 295 299 301 305 304 304 308 301 305 302 294 295
271 271 271 271 271 272 272 272 272 272 273 273 274 275 276 277 279 281 282 282 282 283 284 285 287 289 290 291 292 291 292 295 295 297 300 303 304 305 306 302 305 300 297
269 268 268 269 270 271 270 271 271 271 270 271 271 272 275 276 278 279 280 282 282 281 281 283 285 288 290 291 292 292 293 293 293 293 296 299 301 302 302 299 300 302 304
266 266 267 268 268 269 269 269 268 269 269 269 270 270 271 274 275 278 279 280 281 280 281 282 284 285 286 286 287 289 289 291 290 290 291 295 299 303 297 293 288 287 286
264 265 266 266 266 267 268 268 268 268 268 269 269 270 271 273 274 276 277 278 280 280 280 280 281 283 284 284 284 286 287 288 288 289 292 295 299 294 292 291 290 288 289
263 263 264 265 265 265 266 267 268 269 270 270 271 272 271 271 274 277 277 277 278 279 280 280 280 280 280 282 283 285 286 287 288 290 291 293 294 292 289 291 291 288 290
260 261 262 262 262 263 264 264 268 270 271 273 274 273 273 275 276 276 277 278 278 279 277 276 277 279 280 281 283 284 286 287 288 289 291 292 293 289 289 288 289 288 289
258 259 260 260 261 261 262 262 261 264 269 270 271 272 273 273 275 275 275 276 277 277 273 274 277 281 282 283 284 285 286 287 288 289 290 291 292 290 288 288 287 287 288
257 258 259 259 260 260 260 260 261 260 260 261 266 268 270 271 272 272 274 273 267 269 270 270 272 274 280 285 285 286 287 288 288 289 289 290 290 289 288 287 287 287 287
256 256 258 258 259 259 259 259 260 259 259 260 261 264 265 268 269 271 270 265 264 264 266 267 269 271 272 274 285 287 287 287 288 288 288 288 289 288 287 287 287 287 287
254 255 257 257 257 257 257 258 258 258 258 258 259 259 261 262 263 262 263 263 263 263 264 265 266 268 270 272 273 285 287 287 287 288 288 288 288 288 287 287 286 286 285
253 255 256 255 254 255 256 256 256 256 257 257 258 260 266 263 260 260 261 261 262 263 263 264 265 266 267 269 272 275 285 286 287 288 288 288 288 287 287 287 286 286 286
253 253 253 252 253 254 254 255 255 255 255 256 256 258 263 259 259 260 260 261 262 263 263 264 264 265 266 268 270 271 272 284 286 287 287 287 287 286 286 286 285 285 285
251 251 251 251 252 252 252 253 253 253 254 254 255 256 256 257 258 258 259 260 261 261 263 263 263 264 266 267 268 269 270 274 285 287 287 286 286 285 285 285 285 284 283
251 248 249 249 250 250 250 251 252 252 252 252 253 254 254 256 256 257 258 259 260 261 262 262 263 265 265 266 267 268 270 274 277 286 286 286 285 285 285 285 285 284 283
244 246 248 248 248 248 249 249 250 250 251 251 252 252 253 254 255 256 258 259 259 260 260 262 264 265 266 266 267 269 271 272 275 283 285 285 285 285 285 285 284 283 280
245 245 247 247 247 247 248 248 249 249 250 251 251 251 252 252 253 255 256 257 258 258 259 262 263 266 266 268 269 272 274 275 277 281 285 285 285 284 284 284 283 282 277
Wind_Speed
12 10 11 11 11 10 10 10 10 10 11 10 9 9 9 8 8 9 11 11 12 12 12 13 15 14 11 10 9 11 11 11 14 12 11 9 8 9 5 7 6 10 9
10 9 10 10 10 10 11 11 10 11 10 11 10 10 10 9 9 10 10 11 11 12 14 13 16 11 16 16 11 13 13 13 12 18 12 10 11 10 11 12 9 9 9
10 10 10 10 10 11 11 12 12 12 11 11 11 11 11 10 10 10 11 11 12 14 15 17 17 15 15 13 13 13 13 11 12 12 14 9 8 3 2 3 6 7 7
12 10 10 10 11 11 12 12 12 12 12 12 11 11 11 11 11 11 11 11 13 13 14 15 16 17 18 16 14 15 14 13 12 13 13 12 5 4 4 7 5 5 8
10 10 11 12 13 12 12 13 12 12 12 12 13 13 11 10 8 11 12 13 14 14 15 15 15 16 17 18 13 15 14 14 13 13 13 11 6 5 12 8 12 11 10
11 11 12 12 13 13 12 12 12 12 13 13 13 14 13 9 16 18 15 14 15 15 16 15 15 15 16 19 20 24 24 17 17 13 13 15 17 14 12 12 12 6 6
9 11 12 12 13 13 13 13 13 14 14 14 14 14 13 13 20 21 21 14 15 16 17 15 16 13 14 17 19 18 22 27 31 22 19 19 19 16 15 14 15 14 14
9 9 9 10 12 13 13 14 13 12 13 14 14 15 14 12 21 22 21 15 15 17 17 17 18 20 18 16 18 20 21 19 20 17 25 26 21 17 18 20 19 15 2
11 12 13 13 14 14 14 14 13 12 13 13 13 15 15 14 22 25 22 14 15 17 16 17 17 20 23 20 19 21 22 24 20 25 30 33 32 27 19 12 10 9 8
11 12 12 13 13 13 13 13 12 12 14 12 15 15 17 16 22 24 22 12 16 14 15 16 18 18 24 22 17 17 20 25 18 18 18 20 26 25 23 21 15 15 11
11 11 12 12 13 12 13 13 12 14 14 14 15 15 17 16 16 25 26 14 13 14 14 15 13 24 29 27 27 21 22 21 22 18 17 16 16 16 15 16 20 15 14
11 12 12 12 11 11 13 12 13 13 14 15 16 15 12 14 20 21 26 26 25 17 17 15 17 28 30 31 25 30 31 26 16 16 16 19 17 17 14 13 19 17 17
11 10 10 11 11 12 12 12 10 11 11 12 12 14 13 12 12 26 27 26 25 18 15 24 37 37 36 28 28 29 24 13 15 16 17 19 17 16 11 9 3 5 3
9 11 10 10 11 11 9 9 9 9 11 12 13 15 16 15 13 12 12 14 21 18 21 18 25 32 36 31 24 19 15 15 17 19 17 17 12 9 11 11 11 10 8
11 12 11 9 11 11 10 10 10 11 13 14 13 15 17 19 14 28 29 20 18 21 26 18 16 15 16 15 15 16 15 14 16 16 17 16 13 11 11 11 12 10 13
11 9 8 9 9 10 11 11 16 24 26 27 29 24 15 31 41 38 37 39 42 41 20 17 17 16 16 15 16 16 15 17 15 15 15 14 14 12 13 11 12 13 16
11 12 9 10 9 10 11 12 16 13 24 25 27 29 31 33 37 38 39 41 40 34 16 16 16 15 15 15 15 15 17 15 15 14 15 14 13 12 14 14 14 14 15
9 12 9 8 9 10 11 12 11 14 15 12 16 24 28 32 34 37 36 34 20 15 14 16 15 15 19 16 14 15 15 15 14 14 14 14 12 12 12 12 14 16 15
9 7 8 8 9 11 11 11 11 13 13 15 15 18 17 28 33 31 31 13 15 17 16 17 15 16 16 17 19 15 16 15 14 14 12 13 13 11 14 14 15 20 20
7 11 10 9 9 10 10 11 11 12 13 13 13 14 15 18 14 15 13 13 14 15 15 17 17 16 16 17 18 19 13 15 14 14 15 13 13 13 15 15 14 14 15
6 7 10 8 8 9 9 10 11 12 12 12 13 14 31 18 16 14 14 14 14 15 17 17 17 17 16 17 17 20 17 15 15 14 13 13 13 12 14 14 14 14 14
5 7 6 7 8 8 9 10 10 11 12 13 14 15 30 13 13 14 15 15 15 16 15 16 16 16 16 16 18 18 20 18 14 14 13 13 13 13 13 13 13 14 14
5 5 7 7 7 9 9 9 9 10 12 13 13 14 14 13 14 14 15 15 15 16 15 15 16 16 16 16 16 16 17 20 15 12 12 12 12 12 13 13 13 12 14
6 4 7 7 7 8 8 9 10 12 12 12 12 13 13 14 15 17 16 15 16 17 16 16 16 21 19 19 17 17 16 17 19 14 15 13 12 13 12 12 13 17 15
3 5 6 7 7 7 8 9 10 10 11 11 12 11 13 14 14 15 15 15 16 17 20 19 16 22 24 30 27 26 25 30 24 22 11 13 14 15 13 12 13 13 15
5 5 6 6 7 7 8 9 10 10 11 11 11 12 13 14 14 15 15 17 16 19 22 17 21 27 30 23 25 31 27 26 22 23 13 11 11 10 10 13 17 13 17
Wind_Direction
27 24 28 24 23 25 25 15 6 356 353 350 343 335 327 329 295 256 244 245 236 241 238 233 237 232 234 230 232 234 236 235 249 255 254 246 231 221 207 216 196 204 200
12 16 21 17 17 18 11 2 355 348 343 336 333 329 325 325 324 311 303 279 255 252 251 241 242 238 235 241 218 230 238 231 237 256 251 243 225 223 216 202 207 195 197
2 10 14 12 12 10 357 349 344 337 331 327 326 322 318 318 315 310 304 299 291 283 276 265 258 251 247 246 241 235 234 236 239 244 254 251 224 199 169 183 189 211 196
356 2 12 1 5 356 344 342 336 331 325 323 319 311 308 311 311 307 302 305 304 299 296 287 277 264 258 253 245 243 240 235 231 238 244 242 208 226 208 199 215 200 209
353 358 21 1 347 346 343 337 333 328 325 321 318 312 314 315 312 316 308 303 297 291 285 280 277 277 275 267 262 257 247 246 241 237 238 236 196 186 203 200 212 210 209
5 6 2 357 340 343 340 335 329 329 326 323 316 311 317 315 315 306 301 298 294 291 288 286 285 278 272 262 252 251 253 252 245 239 242 236 229 223 213 212 214 171 232
11 3 359 351 334 338 339 337 336 331 327 319 314 313 314 313 310 308 303 294 289 285 285 288 287 281 279 279 277 255 245 245 245 252 252 240 244 223 216 213 207 204 216
10 358 346 336 341 343 340 338 329 327 324 313 311 309 309 306 308 307 302 294 287 285 282 281 279 282 279 289 290 282 276 263 247 242 248 257 248 240 214 211 210 217 47
2 355 350 348 344 341 338 334 328 319 314 315 312 312 311 307 311 313 310 297 288 286 285 281 277 280 285 288 284 284 281 271 261 245 246 249 248 242 229 208 199 169 206
355 350 347 344 338 332 328 325 318 318 316 317 313 309 307 305 309 310 312 302 295 293 288 287 278 276 283 278 270 274 272 268 281 275 264 255 254 247 229 212 197 207 210
344 341 339 335 330 326 324 325 323 321 319 317 314 313 309 304 304 310 313 309 305 302 298 298 292 288 288 283 279 274 270 287 286 281 271 262 252 243 238 218 218 206 204
339 333 330 330 330 329 327 321 322 320 318 317 314 310 309 308 307 309 308 304 301 297 293 291 290 292 293 287 279 273 273 277 275 276 267 260 253 244 232 212 215 220 218
331 325 324 324 323 325 321 316 314 314 310 310 310 307 307 306 305 306 305 303 303 299 292 291 294 293 291 289 284 292 295 277 269 262 255 260 257 260 230 212 167 120 63
320 323 323 321 321 318 315 312 311 312 312 313 309 304 304 304 306 306 301 298 293 289 287 281 279 280 280 276 280 275 267 264 264 262 257 257 254 222 213 198 195 188 183
332 326 325 322 317 316 312 311 310 307 304 305 305 304 306 302 304 308 312 308 302 297 302 289 280 274 275 274 271 267 263 263 259 258 259 255 244 212 210 204 203 195 201
322 318 317 317 319 313 313 308 305 307 307 305 304 302 301 300 308 311 313 312 308 306 297 287 280 274 269 269 267 266 260 259 256 261 259 253 245 212 207 201 202 201 199
321 318 317 314 313 316 314 312 309 304 302 304 305 305 306 304 309 316 318 313 309 315 295 289 289 281 272 266 266 264 264 257 253 251 254 253 243 225 209 204 203 201 203
305 309 310 306 310 303 307 304 303 307 312 308 305 309 309 314 317 316 317 325 313 309 301 297 298 302 306 271 263 264 263 260 250 246 241 241 237 225 219 215 207 204 199
315 309 309 309 306 307 303 302 306 306 307 309 314 311 314 314 312 314 323 309 308 307 308 303 303 303 301 307 294 265 261 260 253 248 240 228 227 220 223 219 214 207 199
310 300 308 304 304 300 300 303 306 306 306 306 308 309 315 311 318 320 313 311 309 304 304 303 302 303 303 302 302 288 267 267 259 249 241 229 225 217 219 217 213 204 203
290 290 292 292 297 301 304 303 306 305 304 305 304 306 312 320 317 310 311 311 310 308 305 302 304 302 304 301 300 307 285 272 264 253 241 229 224 221 217 217 211 207 197
274 284 292 296 299 297 299 301 303 305 307 307 306 307 315 312 307 307 307 310 309 304 301 303 304 304 302 303 304 302 307 289 270 256 242 228 223 217 213 213 205 198 191
279 277 301 294 292 295 302 307 306 307 304 305 307 309 311 310 309 307 308 306 306 305 303 304 301 303 303 299 300 297 297 303 285 267 246 228 223 216 211 209 202 197 188
267 275 290 286 295 299 301 302 302 300 300 303 305 305 306 307 306 306 306 307 306 305 306 307 304 309 307 306 304 301 297 293 307 273 251 235 226 216 212 206 199 194 187
253 273 276 283 287 294 298 296 295 297 299 302 304 304 306 306 305 306 308 308 308 309 311 309 309 312 313 313 306 301 299 302 302 288 254 236 229 216 207 203 194 186 171
262 265 274 278 280 282 284 287 290 294 297 301 302 303 304 306 306 306 308 310 314 312 310 312 312 317 319 318 317 314 312 309 310 308 264 243 234 220 206 201 189 180 166